Location: Kawakawa
(35.3830°S, 174.0670°E)
Time: 17:50:35
(UTC+12:00)

SEDSat Delta rocket - Pass Details

Date: 15 August 2020
Orbit: 533 x 1001 km, 31.4° (Epoch: 25 September)

Event Time Altitude Azimuth Distance (km) Brightness Sun altitude
Rises 20:02:34 0° 281° (WNW) 2,678 7.5 -27.1°
Reaches altitude 10° 20:04:50 10° 287° (WNW) 1,789 6.3 -27.6°
Enters shadow 20:07:15 32° 307° (NW) 946 4.3 -28.1°
